FW4606 Weather Reports


Display with metric or nautical units.
time (UTC)temp
F
wind
direction
speed
MPH
gust
MPH
rain 1hr
in
rain 24hr
in
rain mn
in
humidity
%
barometer
mb
20221206094839 7 118 0.0 0.0 0.00 0.00 0.00 89 1017.4
20221206094057 7 118 0.0 0.0 0.00 0.00 0.00 90 1017.6
20221206093320 7 118 0.0 0.0 0.00 0.00 0.00 89 1017.5
20221206092814 7 118 0.0 0.0 0.00 0.00 0.00 89 1017.3
20221206092309 7 118 0.0 0.0 0.00 0.00 0.00 90 1016.9
20221206091803 6 91 0.0 0.0 0.00 0.00 0.00 88 1017.3
20221206091257 7 90 0.0 0.0 0.00 0.00 0.00 88 1017.5
20221206090750 7 91 0.0 0.0 0.00 0.00 0.00 88 1017.4
20221206090245 8 90 0.0 0.0 0.00 0.00 0.00 88 1017.4
20221206085738 8 91 0.0 0.0 0.00 0.00 0.00 90 1017.5
20221206085504 8 90 0.0 0.0 0.00 0.00 0.00 90 1017.4
20221206084727 8 91 0.0 0.0 0.00 0.00 0.00 89 1017.5
20221206084220 8 91 0.0 0.0 0.00 0.00 0.00 89 1017.5
20221206083715 8 91 0.0 0.0 0.00 0.00 0.00 89 1017.5
20221206083208 8 342 0.0 0.0 0.00 0.00 0.00 88 1017.8
20221206082703 8 343 0.0 0.0 0.00 0.00 0.00 88 1018.0
20221206082157 8 342 0.0 0.0 0.00 0.00 0.00 88 1018.0
20221206081651 8 342 0.0 0.0 0.00 0.00 0.00 88 1018.0
20221206081145 8 343 0.0 0.0 0.00 0.00 0.00 88 1017.9
20221206080639 8 342 0.0 0.0 0.00 0.00 0.00 87 1017.7
20221206080403 9 343 0.0 0.0 0.00 0.00 0.00 87 1017.7
20221206075626 9 343 0.0 0.0 0.00 0.00 0.00 87 1017.7
20221206075121 10 343 0.0 0.0 0.00 0.00 0.00 87 1017.4
20221206074845 10 343 0.0 0.0 0.00 0.00 0.00 87 1017.5
20221206074110 10 342 0.0 0.0 0.00 0.00 0.00 87 1017.4
20221206073603 10 343 0.0 0.0 0.00 0.00 0.00 87 1017.3
20221206073057 10 343 0.0 0.0 0.00 0.00 0.00 86 1017.3
20221206072551 10 342 0.0 0.0 0.00 0.00 0.00 86 1017.3
20221206072045 10 342 0.0 0.0 0.00 0.00 0.00 86 1017.4
20221206071539 10 342 0.0 0.0 0.00 0.00 0.00 86 1017.5
20221206071033 10 343 0.0 0.0 0.00 0.00 0.00 86 1017.5
20221206070527 10 343 0.0 0.0 0.00 0.00 0.00 86 1017.4
20221206070021 10 342 0.0 0.0 0.00 0.00 0.00 85 1017.5
20221206065515 10 343 0.0 0.0 0.00 0.00 0.00 84 1017.5
20221206065342 10 342 0.0 0.0 0.00 0.00 0.00 84 1017.5
20221206065250 11 343 0.0 0.0 0.00 0.00 0.00 84 1017.5
20221206063957 11 342 0.0 0.0 0.00 0.00 0.00 85 1017.4
20221206063451 11 342 0.0 0.0 0.00 0.00 0.00 85 1017.3
20221206062951 11 343 0.0 0.0 0.00 0.00 0.00 84 1017.3
20221206062451 12 342 0.0 0.0 0.00 0.00 0.00 84 1017.1
20221206061951 12 343 0.0 0.0 0.00 0.00 0.00 84 1017.0
20221206061451 12 342 0.0 0.0 0.00 0.00 0.00 84 1016.9
20221206060950 12 343 0.0 0.0 0.00 0.00 0.00 82 1017.0
20221206060449 12 343 0.0 0.0 0.00 0.00 0.00 82 1017.0
20221206055950 13 342 0.0 0.0 0.00 0.00 0.00 82 1016.9
20221206055448 13 342 0.0 0.0 0.00 0.00 0.00 80 1016.8
20221206055220 13 343 0.0 0.0 0.00 0.00 0.00 80 1016.8
20221206054720 14 343 0.0 0.0 0.00 0.00 0.00 79 1016.8
20221206053950 14 342 0.0 0.0 0.00 0.00 0.00 80 1016.8
20221206053449 15 342 0.0 0.0 0.00 0.00 0.00 79 1016.8
20221206052945 15 342 0.0 0.0 0.00 0.00 0.00 79 1016.8
20221206052446 15 343 0.0 1.0 0.00 0.00 0.00 79 1016.8
20221206051946 15 343 0.0 1.0 0.00 0.00 0.00 79 1016.9
20221206051444 15 344 0.0 1.0 0.00 0.00 0.00 79 1016.8
20221206050944 15 345 0.0 1.0 0.00 0.00 0.00 79 1016.7
20221206050445 15 342 0.0 0.0 0.00 0.00 0.00 78 1016.7
20221206045946 15 343 0.0 0.0 0.00 0.00 0.00 78 1016.7
20221206045445 16 345 0.0 0.0 0.00 0.00 0.00 78 1016.7
20221206044946 16 344 0.0 0.0 0.00 0.00 0.00 78 1016.6
20221206044714 16 345 0.0 0.0 0.00 0.00 0.00 78 1016.6
20221206044601 16 345 0.0 0.0 0.00 0.00 0.00 78 1016.5
20221206043441 16 351 0.0 1.0 0.00 0.00 0.00 78 1016.4
20221206042940 16 358 0.0 1.0 0.00 0.00 0.00 78 1016.4
20221206042711 16 342 0.0 1.0 0.00 0.00 0.00 78 1016.5
20221206041940 16 345 0.0 1.0 0.00 0.00 0.00 78 1016.4
20221206041440 16 344 0.0 1.0 0.00 0.00 0.00 78 1016.3
20221206040941 16 351 0.0 1.0 0.00 0.00 0.00 79 1016.2
20221206040442 15 359 0.0 2.0 0.00 0.00 0.00 80 1016.2
20221206040207 15 358 0.0 2.0 0.00 0.00 0.00 80 1016.3
20221206035437 15 356 0.0 0.0 0.00 0.00 0.00 80 1016.3
20221206034936 15 356 0.0 0.0 0.00 0.00 0.00 80 1016.3
20221206034442 14 356 0.0 0.0 0.00 0.00 0.00 80 1016.3
20221206034438 15 356 0.0 0.0 0.00 0.00 0.00 80 1016.3
20221206033436 14 355 0.0 0.0 0.00 0.00 0.00 80 1016.3
20221206032938 14 356 0.0 0.0 0.00 0.00 0.00 79 1016.3
20221206032437 14 356 0.0 0.0 0.00 0.00 0.00 77 1016.3
20221206031937 15 355 0.0 0.0 0.00 0.00 0.00 77 1016.2
20221206031433 15 356 0.0 0.0 0.00 0.00 0.00 78 1016.1
20221206030940 16 356 0.0 0.0 0.00 0.00 0.00 76 1016.0
20221206030934 15 356 0.0 0.0 0.00 0.00 0.00 77 1016.0
20221206025934 16 356 0.0 0.0 0.00 0.00 0.00 75 1016.0
20221206025434 16 356 0.0 0.0 0.00 0.00 0.00 74 1016.0
20221206024932 17 347 0.0 0.0 0.00 0.00 0.00 72 1016.0
20221206024433 18 347 0.0 0.0 0.00 0.00 0.00 72 1016.0
20221206023938 18 347 0.0 1.0 0.00 0.00 0.00 73 1015.9
20221206023933 18 347 0.0 0.0 0.00 0.00 0.00 73 1015.9
20221206022928 18 347 0.0 1.0 0.00 0.00 0.00 74 1015.7
20221206022430 17 301 0.0 1.0 0.00 0.00 0.00 74 1015.8
20221206021930 18 96 0.0 1.0 0.00 0.00 0.00 73 1016.1
20221206021700 18 335 0.0 1.0 0.00 0.00 0.00 73 1015.9
20221206020930 18 338 0.0 1.0 0.00 0.00 0.00 72 1015.8
20221206020429 18 0 0.0 1.0 0.00 0.00 0.00 71 1015.7
20221206015928 19 122 0.0 1.0 0.00 0.00 0.00 70 1015.6
20221206015657 19 7 0.0 1.0 0.00 0.00 0.00 70 1015.5
20221206014931 19 358 0.0 2.0 0.00 0.00 0.00 71 1015.3
20221206014926 19 359 0.0 2.0 0.00 0.00 0.00 70 1015.4
20221206013925 18 127 0.0 0.0 0.00 0.00 0.00 72 1015.4
20221206013418 19 125 0.0 1.0 0.00 0.00 0.00 72 1015.3
20221206012913 19 126 0.0 1.0 0.00 0.00 0.00 72 1015.3
20221206012406 19 262 0.0 0.0 0.00 0.00 0.00 72 1015.2
20221206012130 19 262 0.0 0.0 0.00 0.00 0.00 72 1015.2
20221206012004 19 262 0.0 0.0 0.00 0.00 0.00 72 1015.2
20221206010849 20 259 0.0 0.0 0.00 0.00 0.00 71 1015.2
20221206010343 20 259 0.0 0.0 0.00 0.00 0.00 70 1015.1
20221206005837 20 259 0.0 0.0 0.00 0.00 0.00 70 1015.1
20221206005331 21 258 0.0 1.0 0.00 0.00 0.00 69 1015.2
20221206004824 21 259 0.0 2.0 0.00 0.00 0.00 68 1015.1
20221206004319 22 349 0.0 2.0 0.00 0.00 0.00 68 1015.0
20221206004043 22 30 0.0 2.0 0.00 0.00 0.00 67 1015.0
20221206003306 22 319 0.0 2.0 0.00 0.00 0.00 69 1014.9
20221206002801 23 220 0.0 1.0 0.00 0.00 0.00 69 1014.9
20221206002526 23 220 0.0 2.0 0.00 0.00 0.00 68 1014.8
20221206001748 23 228 0.0 2.0 0.00 0.00 0.00 67 1014.8
20221206001240 23 335 0.0 1.0 0.00 0.00 0.00 69 1014.8
20221206000734 23 288 0.0 2.0 0.00 0.00 0.00 69 1014.8
20221206000228 24 311 0.0 2.0 0.00 0.00 0.00 68 1014.7
20221205235723 24 289 0.0 2.0 0.00 0.00 0.00 69 1014.6
20221205235217 24 271 0.0 2.0 0.00 0.00 0.00 68 1014.6
20221205234943 24 278 0.0 1.0 0.00 0.00 0.00 69 1014.5
20221205234205 24 284 0.0 1.0 0.00 0.00 0.00 68 1014.4
20221205233658 24 272 0.0 1.0 0.00 0.00 0.00 70 1014.5
20221205233153 24 300 0.0 3.0 0.00 0.00 0.00 71 1014.4
20221205232647 24 328 0.0 3.0 0.00 0.00 0.00 69 1014.3
20221205232412 24 126 0.0 4.0 0.00 0.00 0.00 69 1014.3
20221205231636 24 3 0.0 4.0 0.00 0.00 0.00 73 1014.2
20221205231128 24 159 0.0 1.0 0.00 0.00 0.00 76 1014.2
20221205230853 25 248 0.0 0.0 0.00 0.00 0.00 75 1014.1
20221205230117 25 252 0.0 1.0 0.00 0.00 0.00 75 1014.0
20221205225611 25 288 0.0 1.0 0.00 0.00 0.00 76 1014.0
20221205225105 25 111 0.0 1.0 0.00 0.00 0.00 75 1014.1
20221205225100 25 111 0.0 2.0 0.00 0.00 0.00 75 1013.9
20221205224053 25 249 0.0 2.0 0.00 0.00 0.00 75 1013.8
20221205223547 25 315 0.0 1.0 0.00 0.00 0.00 76 1013.8
20221205223041 25 158 0.0 1.0 0.00 0.00 0.00 75 1013.6
20221205222542 26 260 0.0 1.0 0.00 0.00 0.00 75 1013.7
20221205222309 26 96 0.0 3.0 0.00 0.00 0.00 74 1013.6
20221205221538 26 345 0.0 3.0 0.00 0.00 0.00 72 1013.5
20221205221039 26 306 0.0 3.0 0.00 0.00 0.00 73 1013.4
20221205220809 26 323 0.0 4.0 0.00 0.00 0.00 72 1013.4
20221205220035 26 359 0.0 4.0 0.00 0.00 0.00 72 1013.2
20221205215535 26 155 0.0 2.0 0.00 0.00 0.00 72 1013.2
20221205215036 27 323 0.0 2.0 0.00 0.00 0.00 71 1013.2
20221205214534 27 96 0.0 3.0 0.00 0.00 0.00 69 1013.1
20221205214033 27 131 0.0 3.0 0.00 0.00 0.00 69 1012.9
20221205213532 27 320 0.0 3.0 0.00 0.00 0.00 70 1012.8
20221205213304 27 287 0.0 2.0 0.00 0.00 0.00 71 1012.8
20221205212530 27 327 0.0 2.0 0.00 0.00 0.00 69 1012.6
20221205212030 28 259 0.0 2.0 0.00 0.00 0.00 69 1012.6
20221205211530 28 92 0.0 4.0 0.00 0.00 0.00 67 1012.5
20221205211303 28 306 0.0 4.0 0.00 0.00 0.00 68 1012.4
20221205210528 28 301 0.0 2.0 0.00 0.00 0.00 68 1012.2
20221205210030 28 293 0.0 4.0 0.00 0.00 0.00 69 1012.1
20221205205524 28 302 0.0 4.0 0.00 0.00 0.00 67 1012.0
20221205205018 28 258 0.0 2.0 0.00 0.00 0.00 68 1011.9
20221205204512 28 333 0.0 3.0 0.00 0.00 0.00 66 1011.9
20221205204237 28 13 0.0 3.0 0.00 0.00 0.00 67 1011.8
20221205203500 28 312 0.0 2.0 0.00 0.00 0.00 67 1011.8
20221205203224 28 291 0.0 2.0 0.00 0.00 0.00 68 1011.8
20221205202448 28 330 0.0 2.0 0.00 0.00 0.00 69 1011.8
20221205201946 29 82 0.0 2.0 0.00 0.00 0.00 69 1011.8
20221205201938 29 291 0.0 2.0 0.00 0.00 0.00 69 1011.8
20221205200930 29 222 0.0 2.0 0.00 0.00 0.00 68 1011.7
20221205200424 29 281 0.0 2.0 0.00 0.00 0.00 68 1011.6
20221205200150 29 284 0.0 2.0 0.00 0.00 0.00 69 1011.6
20221205195412 29 235 0.0 1.0 0.00 0.00 0.00 68 1011.3
20221205194906 29 298 0.0 1.0 0.00 0.00 0.00 69 1011.3
20221205194401 30 291 0.0 2.0 0.00 0.00 0.00 70 1011.3
20221205193855 30 123 0.0 1.0 0.00 0.00 0.00 69 1011.3
20221205193349 30 125 0.0 1.0 0.00 0.00 0.00 69 1011.2
20221205192842 30 280 0.0 1.0 0.00 0.00 0.00 68 1011.2
20221205192337 30 316 0.0 0.0 0.00 0.00 0.00 69 1011.1
20221205191831 30 97 0.0 1.0 0.00 0.00 0.00 69 1011.1
20221205191324 30 242 0.0 1.0 0.00 0.00 0.00 71 1011.1
20221205190818 30 180 0.0 0.0 0.00 0.00 0.00 70 1011.1
20221205190312 30 177 0.0 1.0 0.00 0.00 0.00 69 1011.0
20221205185806 30 226 0.0 1.0 0.00 0.00 0.00 69 1010.9
20221205185531 30 145 0.0 1.0 0.00 0.00 0.00 70 1010.9
20221205184754 31 295 0.0 1.0 0.00 0.00 0.00 70 1011.0
20221205184248 30 152 0.0 1.0 0.00 0.00 0.00 70 1011.1
20221205183743 31 281 0.0 3.0 0.00 0.00 0.00 69 1011.1
20221205183237 31 249 1.0 5.0 0.00 0.00 0.00 69 1011.1
20221205182731 31 143 0.0 5.0 0.00 0.00 0.00 69 1011.0
20221205182225 31 118 0.0 2.0 0.00 0.00 0.00 69 1010.8
20221205181949 31 0 0.0 2.0 0.00 0.00 0.00 69 1010.8
20221205181213 31 67 0.0 2.0 0.00 0.00 0.00 69 1010.8
20221205180710 31 235 0.0 1.0 0.00 0.00 0.00 69 1010.7
20221205180703 31 214 0.0 1.0 0.00 0.00 0.00 70 1010.6
20221205175655 31 222 0.0 0.0 0.00 0.00 0.00 70 1010.6
20221205175421 31 222 0.0 1.0 0.00 0.00 0.00 72 1010.5
20221205174642 30 223 0.0 1.0 0.00 0.00 0.00 74 1010.6
20221205174137 30 135 0.0 1.0 0.00 0.00 0.00 73 1010.7
20221205173630 30 110 0.0 0.0 0.00 0.00 0.00 74 1010.7
20221205173124 30 280 0.0 1.0 0.00 0.00 0.00 74 1010.9
20221205172849 30 276 0.0 1.0 0.00 0.00 0.00 74 1010.9
20221205172112 30 89 0.0 1.0 0.00 0.00 0.00 75 1011.0
20221205171606 30 228 0.0 1.0 0.00 0.00 0.00 74 1011.0
20221205171100 30 356 0.0 1.0 0.00 0.00 0.00 76 1011.0
20221205170555 30 181 0.0 1.0 0.00 0.00 0.00 76 1011.1
20221205170048 30 186 0.0 1.0 0.00 0.00 0.00 77 1011.0
20221205165542 30 269 0.0 1.0 0.00 0.00 0.00 76 1011.0
20221205165037 30 276 0.0 1.0 0.00 0.00 0.00 77 1010.9
20221205164531 29 276 0.0 1.0 0.00 0.00 0.00 78 1011.0
20221205164024 29 276 0.0 1.0 0.00 0.00 0.00 78 1011.1
20221205163518 29 250 0.0 1.0 0.00 0.00 0.00 78 1011.1
20221205163013 29 262 0.0 1.0 0.00 0.00 0.00 78 1011.1
20221205162506 28 274 0.0 1.0 0.00 0.00 0.00 79 1011.2
20221205162231 28 266 0.0 1.0 0.00 0.00 0.00 79 1011.0
20221205161725 28 269 0.0 1.0 0.00 0.00 0.00 79 1010.9
20221205160948 28 262 0.0 3.0 0.00 0.00 0.00 78 1010.9
20221205160442 28 255 0.0 3.0 0.00 0.00 0.00 78 1010.8
20221205155937 28 264 0.0 1.0 0.00 0.00 0.00 79 1010.8
20221205155432 28 284 0.0 1.0 0.00 0.00 0.00 79 1010.7
20221205154924 28 168 0.0 1.0 0.00 0.00 0.00 80 1010.8
20221205154419 28 224 0.0 1.0 0.00 0.00 0.00 79 1010.6
20221205153912 28 132 0.0 3.0 0.00 0.00 0.00 80 1010.5
20221205153406 28 239 0.0 3.0 0.00 0.00 0.00 80 1010.4
20221205152900 27 226 0.0 1.0 0.00 0.00 0.00 80 1010.5
20221205152625 27 124 0.0 1.0 0.00 0.00 0.00 81 1010.3
20221205152119 27 283 0.0 1.0 0.00 0.00 0.00 82 1010.3
20221205151342 27 248 0.0 4.0 0.00 0.00 0.00 82 1010.2
20221205150836 27 146 0.0 4.0 0.00 0.00 0.00 82 1010.1
20221205150330 27 260 0.0 1.0 0.00 0.00 0.00 82 1010.1
20221205145824 27 264 0.0 1.0 0.00 0.00 0.00 83 1010.0
20221205145320 26 13 0.0 0.0 0.00 0.00 0.00 83 1009.8
20221205144812 26 13 0.0 1.0 0.00 0.00 0.00 83 1009.9
20221205144306 26 310 0.0 1.0 0.00 0.00 0.00 83 1009.8
20221205143801 26 314 0.0 1.0 0.00 0.00 0.00 83 1009.6
20221205143255 26 328 0.0 2.0 0.00 0.00 0.00 83 1009.8
20221205142748 26 94 0.0 2.0 0.00 0.00 0.00 84 1009.7
20221205142243 26 210 0.0 0.0 0.00 0.00 0.00 84 1009.7
20221205142008 26 210 0.0 0.0 0.00 0.00 0.00 84 1009.7
20221205141230 26 212 0.0 1.0 0.00 0.00 0.00 84 1009.5
20221205140724 26 210 0.0 1.0 0.00 0.00 0.00 85 1009.3
20221205140219 25 243 0.0 0.0 0.00 0.00 0.00 85 1009.0
20221205135715 25 243 0.0 1.0 0.00 0.00 0.00 85 1008.9
20221205135708 25 243 0.0 2.0 0.00 0.00 0.00 85 1008.8
20221205134701 25 348 0.0 2.0 0.00 0.00 0.00 86 1008.7
20221205134154 25 116 0.0 2.0 0.00 0.00 0.00 86 1008.7
20221205133649 24 116 0.0 2.0 0.00 0.00 0.00 86 1008.5
20221205133142 24 63 0.0 1.0 0.00 0.00 0.00 87 1008.3
20221205132636 24 56 0.0 1.0 0.00 0.00 0.00 87 1008.4
20221205132131 24 153 0.0 0.0 0.00 0.00 0.00 87 1008.3
20221205131857 24 152 0.0 0.0 0.00 0.00 0.00 87 1008.4
20221205131349 24 152 0.0 1.0 0.00 0.00 0.00 87 1008.3
20221205130613 24 242 0.0 1.0 0.00 0.00 0.00 87 1008.2
20221205130107 23 151 0.0 0.0 0.00 0.00 0.00 87 1008.1
20221205125601 23 150 0.0 0.0 0.00 0.00 0.00 87 1007.9
20221205125054 23 150 0.0 0.0 0.00 0.00 0.00 86 1007.9
20221205124548 24 151 0.0 0.0 0.00 0.00 0.00 86 1007.8
20221205124042 24 151 0.0 0.0 0.00 0.00 0.00 86 1007.7
20221205123536 24 151 0.0 0.0 0.00 0.00 0.00 86 1007.6
20221205123031 24 150 0.0 0.0 0.00 0.00 0.00 86 1007.6
20221205122524 24 150 0.0 0.0 0.00 0.00 0.00 86 1007.6
20221205122018 24 150 0.0 0.0 0.00 0.00 0.00 86 1007.7
20221205121512 24 150 0.0 0.0 0.00 0.00 0.00 86 1007.7
20221205121007 24 153 0.0 0.0 0.00 0.00 0.00 86 1007.6
20221205120731 24 152 0.0 1.0 0.00 0.00 0.00 86 1007.4
20221205115954 24 152 0.0 1.0 0.00 0.00 0.00 86 1007.4
20221205115448 24 153 0.0 0.0 0.00 0.00 0.00 85 1007.4
20221205114942 24 152 0.0 0.0 0.00 0.00 0.00 85 1007.4
20221205114436 24 153 0.0 0.0 0.00 0.00 0.00 85 1007.2
20221205113930 24 153 0.0 0.0 0.00 0.00 0.00 85 1007.1
20221205113424 25 152 0.0 0.0 0.00 0.00 0.00 85 1007.2
20221205112918 25 152 0.0 0.0 0.00 0.00 0.00 86 1007.2
20221205112413 25 153 0.0 0.0 0.00 0.00 0.00 86 1007.1
20221205111907 24 153 0.0 0.0 0.00 0.00 0.00 86 1007.2
20221205111400 24 153 0.0 0.0 0.00 0.00 0.00 85 1007.4
20221205111126 24 152 0.0 0.0 0.00 0.00 0.00 86 1007.4
20221205110348 24 152 0.0 0.0 0.00 0.00 0.00 86 1007.4
20221205105842 24 152 0.0 0.0 0.00 0.00 0.00 85 1007.5
20221205105336 24 152 0.0 0.0 0.00 0.00 0.00 85 1007.5
20221205104830 24 153 0.0 0.0 0.00 0.00 0.00 85 1007.6
20221205104553 24 152 0.0 0.0 0.00 0.00 0.00 84 1007.6
20221205104427 24 153 0.0 0.0 0.00 0.00 0.00 85 1007.7
20221205103312 24 152 0.0 0.0 0.00 0.00 0.00 84 1007.6
20221205102806 24 152 0.0 0.0 0.00 0.00 0.00 85 1007.4
20221205102305 24 152 0.0 0.0 0.00 0.00 0.00 84 1007.5
20221205101754 24 153 0.0 0.0 0.00 0.00 0.00 84 1007.5
20221205101250 25 153 0.0 1.0 0.00 0.00 0.00 84 1007.3
20221205100747 25 187 0.0 0.0 0.00 0.00 0.00 84 1007.0
20221205100742 25 153 0.0 1.0 0.00 0.00 0.00 83 1007.2
20221205095738 25 187 0.0 0.0 0.00 0.00 0.00 85 1007.0
20221205095238 25 187 0.0 0.0 0.00 0.00 0.00 85 1006.9